Voltar ao catálogo

BEIDOU 3 M28

AtivoNavegaçãoMEO
NORAD 58654·PAYLOAD·🇨🇳 China

Lançado Dec 26, 2023 de Xichang Satellite Launch Center

Loading…

Próximas Passagens (próximas 24 horas)

TLE

AtualizadoSource: Space-Track

Época: Sep 14, 2026, 10:25 UTC

1 58654U 23207A   26257.43424630 -.00000051  00000-0  00000-0 0  9997
2 58654  55.8368  59.2971 0000655  45.3182 314.6983  1.86229739 18502

Acompanhe BEIDOU 3 M28 em tempo real com AllMySat

Download on the App Store